This demonstration page uses our WeatherBlox Daily Observations layout. Learn more.

Left ArrowRight Arrow

36.17497, -115.13722

Hourly Observations for April 3, 2020

Temp ( °F °C ) Dew Point ( °F °C ) Humidity (%) Winds ( mph kmh ) Pressure ( in mb ) Visibility ( mi km ) Precip ( " mm )
12:53 am 00:53 Clear 55 12.8 23 -5 29 29 WNW 6 9 29.93 1014 10 16 N/A
1:53 am 01:53 Clear 55 12.8 21 -6.1 26 26 N N/A 29.93 1014 10 16 N/A
2:53 am 02:53 Clear 53 11.7 23 -5 31 31 SW 3 6 29.93 1014 10 16 N/A
3:53 am 03:53 Clear 53 11.7 19 -7.2 26 26 SSW 7 11 29.94 1014 10 16 N/A
4:53 am 04:53 Clear 52 11.1 19 -7.2 27 27 SW 6 9 29.94 1014 10 16 N/A
5:53 am 05:53 Clear 51 10.6 18 -7.8 27 27 SSW 5 7 29.95 1014 10 16 N/A
6:53 am 06:53 Sunny 51 10.6 18 -7.8 27 27 SSW 3 6 29.96 1015 10 16 N/A
7:53 am 07:53 Sunny 54 12.2 17 -8.3 23 23 S 6 9 29.98 1015 10 16 N/A
8:53 am 08:53 Sunny 57 13.9 18 -7.8 22 22 VRB 5 7 29.98 1015 10 16 N/A
9:53 am 09:53 Sunny 60 15.6 17 -8.3 19 19 SE 7 11 29.98 1015 10 16 N/A
10:53 am 10:53 Sunny 63 17.2 16 -8.9 16 16 VRB 3 6 29.96 1015 10 16 N/A
11:53 am 11:53 Sunny 66 18.9 15 -9.4 14 14 ESE 7 11 29.94 1014 10 16 N/A
12:53 pm 12:53 Sunny 67 19.4 13 -10.6 12 12 SE 6 9 29.90 1013 10 16 N/A
1:53 pm 13:53 Sunny 68 20 16 -8.9 13 13 N N/A 29.87 1011 10 16 N/A
2:53 pm 14:53 Sunny 70 21.1 17 -8.3 13 13 ESE 6 9 29.83 1010 10 16 N/A
3:53 pm 15:53 Sunny 72 22.2 17 -8.3 12 12 NNW 6 9 29.81 1010 10 16 N/A
4:53 pm 16:53 Sunny 71 21.7 17 -8.3 13 13 VRB 3 6 29.79 1009 10 16 N/A
5:53 pm 17:53 Sunny 71 21.7 18 -7.8 13 13 E 7 11 29.78 1008 10 16 N/A
6:53 pm 18:53 Sunny 69 20.6 19 -7.2 15 15 E 7 11 29.79 1009 10 16 N/A
7:53 pm 19:53 Clear 66 18.9 20 -6.7 17 17 ENE 5 7 29.80 1009 10 16 N/A
8:53 pm 20:53 Clear 66 18.9 21 -6.1 18 18 N 6 9 29.80 1009 10 16 N/A
9:53 pm 21:53 Clear 63 17.2 23 -5 22 22 WNW 5 7 29.81 1010 10 16 N/A
10:53 pm 22:53 Clear 61 16.1 25 -3.9 25 25 W 7 11 29.81 1010 10 16 N/A
11:53 pm 23:53 Clear 59 15 25 -3.9 27 27 N N/A 29.80 1009 10 16 N/A

Powered by AerisWeather